DAL22 KJAX-KFLL

Flight info

Callsign DAL22
Flight time N/A
Altitude 31000
Route EXBOX2 EXBOX PRMUS CUUDA3
Aircraft B738/M-SDE2E3FGHIRWXY/LB1

Departure

Time 2026-05-03 22:20
Airport Jacksonville International Airport (KJAX)

Arrival

Time N/A
Airport Fort Lauderdale Hollywood International Airport (KFLL)
Time Latitude Longitude Altitude Speed Heading
2026-05-03 21:54 30.49368 -81.68619 37 ft 0 kts 128°
2026-05-03 22:08 30.49376 -81.68628 37 ft 2 kts 168°
2026-05-03 22:08 30.49384 -81.68628 35 ft 0 kts 218°
2026-05-03 22:13 30.49374 -81.68651 36 ft 5 kts 275°
2026-05-03 22:14 30.49381 -81.68697 35 ft 7 kts 278°
2026-05-03 22:14 30.49385 -81.68753 38 ft 8 kts 271°
2026-05-03 22:14 30.49383 -81.68845 38 ft 14 kts 267°
2026-05-03 22:14 30.49374 -81.68952 38 ft 13 kts 257°
2026-05-03 22:15 30.49300 -81.69002 38 ft 14 kts 189°
2026-05-03 22:15 30.49208 -81.69021 38 ft 13 kts 191°
2026-05-03 22:15 30.49120 -81.69042 38 ft 13 kts 199°
2026-05-03 22:15 30.49060 -81.69117 38 ft 13 kts 231°
2026-05-03 22:16 30.49006 -81.69196 38 ft 12 kts 232°
2026-05-03 22:16 30.48953 -81.69273 35 ft 12 kts 232°
2026-05-03 22:16 30.48911 -81.69354 35 ft 12 kts 265°
2026-05-03 22:16 30.48953 -81.69434 35 ft 13 kts 310°
2026-05-03 22:17 30.49016 -81.69520 36 ft 16 kts 310°
2026-05-03 22:17 30.49098 -81.69632 37 ft 21 kts 311°
2026-05-03 22:17 30.49201 -81.69769 37 ft 22 kts 311°
2026-05-03 22:17 30.49283 -81.69882 37 ft 17 kts 309°
2026-05-03 22:18 30.49309 -81.69973 35 ft 9 kts 239°
2026-05-03 22:18 30.49293 -81.69993 35 ft 0 kts 223°
2026-05-03 22:18 30.49293 -81.69994 35 ft 1 kts 223°
2026-05-03 22:19 30.49252 -81.70034 34 ft 14 kts 218°
2026-05-03 22:19 30.49180 -81.70049 37 ft 11 kts 130°
2026-05-03 22:19 30.48954 -81.69728 38 ft 94 kts 131°
2026-05-03 22:19 30.48349 -81.68912 44 ft 168 kts 131°
2026-05-03 22:20 30.47530 -81.67806 721 ft 190 kts 134°
2026-05-03 22:20 30.46670 -81.66629 1777 ft 193 kts 131°
2026-05-03 22:20 30.45782 -81.65353 2353 ft 215 kts 130°
2026-05-03 22:20 30.44819 -81.63964 2813 ft 231 kts 130°
2026-05-03 22:21 30.43762 -81.62444 2874 ft 249 kts 130°
2026-05-03 22:21 30.42624 -81.60810 2889 ft 267 kts 130°
2026-05-03 22:21 30.41442 -81.59117 2898 ft 272 kts 130°
2026-05-03 22:21 30.40252 -81.57412 2894 ft 270 kts 130°
2026-05-03 22:22 30.39075 -81.55725 2892 ft 268 kts 130°
2026-05-03 22:22 30.37904 -81.54046 2905 ft 267 kts 130°
2026-05-03 22:22 30.36748 -81.52390 2903 ft 268 kts 130°
2026-05-03 22:22 30.35572 -81.50704 2899 ft 269 kts 130°
2026-05-03 22:23 30.34396 -81.49019 2892 ft 269 kts 130°
2026-05-03 22:23 30.33220 -81.47330 2881 ft 268 kts 130°
2026-05-03 22:23 30.32051 -81.45653 2888 ft 266 kts 130°
2026-05-03 22:23 30.30890 -81.43987 2887 ft 265 kts 130°
2026-05-03 22:24 30.29733 -81.42323 2890 ft 265 kts 130°
2026-05-03 22:24 30.28576 -81.40661 2903 ft 265 kts 130°
2026-05-03 22:24 30.27413 -81.38988 2899 ft 267 kts 130°
2026-05-03 22:24 30.26244 -81.37308 2893 ft 269 kts 130°
2026-05-03 22:25 30.25083 -81.35638 2898 ft 270 kts 130°
2026-05-03 22:25 30.23905 -81.33942 2886 ft 271 kts 130°
2026-05-03 22:25 30.22726 -81.32246 2878 ft 270 kts 130°
2026-05-03 22:25 30.21548 -81.30552 2883 ft 269 kts 130°
2026-05-03 22:26 30.20372 -81.28860 2893 ft 268 kts 130°
2026-05-03 22:26 30.19203 -81.27178 2903 ft 269 kts 130°
2026-05-03 22:26 30.18047 -81.25514 2891 ft 270 kts 130°
2026-05-03 22:26 30.16872 -81.23820 2877 ft 269 kts 130°
2026-05-03 22:27 30.15700 -81.22131 2885 ft 268 kts 130°
2026-05-03 22:27 30.14535 -81.20451 2886 ft 267 kts 130°
2026-05-03 22:27 30.13369 -81.18771 2888 ft 267 kts 130°
2026-05-03 22:27 30.12211 -81.17100 2890 ft 266 kts 130°
2026-05-03 22:28 30.11195 -81.15635 2886 ft 263 kts 130°
2026-05-03 22:28 30.10078 -81.14021 2905 ft 251 kts 130°
2026-05-03 22:28 30.09017 -81.12485 3023 ft 246 kts 130°
2026-05-03 22:28 30.07938 -81.10923 3593 ft 251 kts 130°
2026-05-03 22:29 30.06847 -81.09344 4327 ft 253 kts 130°
2026-05-03 22:29 30.05742 -81.07745 5111 ft 257 kts 130°
2026-05-03 22:29 30.04627 -81.06134 6047 ft 257 kts 130°
2026-05-03 22:29 30.03509 -81.04517 6924 ft 259 kts 130°
2026-05-03 22:30 30.02371 -81.02881 7743 ft 263 kts 132°
2026-05-03 22:30 30.00865 -81.01617 8187 ft 278 kts 165°
2026-05-03 22:30 29.99595 -81.01437 8623 ft 280 kts 188°
2026-05-03 22:30 29.97805 -81.02231 9407 ft 278 kts 218°
2026-05-03 22:31 29.95672 -81.03926 10390 ft 290 kts 213°
2026-05-03 22:31 29.93849 -81.05151 10664 ft 313 kts 210°
2026-05-03 22:31 29.91954 -81.06325 11759 ft 303 kts 209°
2026-05-03 22:31 29.90105 -81.07422 12876 ft 296 kts 208°
2026-05-03 22:32 29.88862 -81.08144 13453 ft 297 kts 208°
2026-05-03 22:32 29.87029 -81.09201 14179 ft 301 kts 208°
2026-05-03 22:32 29.85142 -81.10284 14892 ft 305 kts 208°
2026-05-03 22:32 29.83209 -81.11331 15599 ft 310 kts 200°
2026-05-03 22:33 29.81059 -81.11603 16265 ft 317 kts 174°
2026-05-03 22:33 29.78923 -81.10899 16960 ft 322 kts 160°
2026-05-03 22:33 29.76843 -81.09901 17626 ft 326 kts 158°
2026-05-03 22:33 29.74750 -81.08852 18273 ft 330 kts 158°
2026-05-03 22:34 29.72636 -81.07786 18918 ft 333 kts 158°
2026-05-03 22:34 29.70497 -81.06711 19557 ft 336 kts 158°
2026-05-03 22:34 29.68338 -81.05635 20174 ft 340 kts 158°
2026-05-03 22:34 29.66155 -81.04554 20779 ft 343 kts 158°
2026-05-03 22:35 29.63980 -81.03483 21362 ft 346 kts 158°
2026-05-03 22:35 29.61754 -81.02389 21939 ft 349 kts 158°
2026-05-03 22:35 29.59507 -81.01288 22501 ft 352 kts 158°
2026-05-03 22:35 29.57242 -81.00181 23050 ft 355 kts 158°
2026-05-03 22:36 29.54954 -80.99063 23584 ft 358 kts 158°
2026-05-03 22:36 29.52640 -80.97933 24105 ft 361 kts 158°
2026-05-03 22:36 29.50315 -80.96799 24610 ft 364 kts 158°
2026-05-03 22:36 29.47971 -80.95656 25101 ft 367 kts 158°
2026-05-03 22:37 29.45608 -80.94504 25581 ft 370 kts 158°
2026-05-03 22:37 29.43230 -80.93346 26046 ft 373 kts 158°
2026-05-03 22:37 29.40867 -80.92195 26511 ft 375 kts 158°
2026-05-03 22:37 29.38457 -80.91022 27057 ft 374 kts 158°
2026-05-03 22:38 29.36066 -80.89859 27657 ft 372 kts 158°
2026-05-03 22:38 29.33687 -80.88702 28190 ft 371 kts 158°
2026-05-03 22:38 29.31307 -80.87546 28675 ft 371 kts 158°
2026-05-03 22:38 29.28929 -80.86391 29161 ft 370 kts 158°
2026-05-03 22:39 29.26559 -80.85240 29659 ft 369 kts 158°
2026-05-03 22:39 29.24190 -80.84091 29998 ft 370 kts 158°
2026-05-03 22:39 29.21823 -80.82943 29972 ft 368 kts 158°
2026-05-03 22:40 29.17087 -80.80649 30013 ft 375 kts 158°
2026-05-03 22:40 29.12182 -80.78277 30024 ft 395 kts 158°
2026-05-03 22:41 29.06985 -80.75764 30024 ft 414 kts 158°
2026-05-03 22:41 29.01558 -80.73140 30028 ft 432 kts 158°
2026-05-03 22:42 28.95945 -80.70440 30019 ft 445 kts 159°
2026-05-03 22:42 28.90164 -80.67825 29991 ft 446 kts 160°
2026-05-03 22:43 28.84363 -80.65263 29992 ft 446 kts 160°
2026-05-03 22:43 28.78591 -80.62702 29991 ft 444 kts 160°
2026-05-03 22:44 28.72849 -80.60143 29996 ft 441 kts 160°
2026-05-03 22:44 28.67181 -80.57615 30001 ft 440 kts 160°
2026-05-03 22:45 28.61485 -80.55078 30003 ft 439 kts 160°
2026-05-03 22:45 28.55794 -80.52546 30000 ft 439 kts 160°
2026-05-03 22:46 28.50091 -80.50012 30007 ft 440 kts 160°
2026-05-03 22:46 28.44381 -80.47479 30018 ft 440 kts 160°
2026-05-03 22:47 28.38658 -80.44942 29998 ft 441 kts 160°
2026-05-03 22:47 28.32957 -80.42417 30017 ft 442 kts 160°
2026-05-03 22:48 28.27219 -80.39879 29999 ft 442 kts 160°
2026-05-03 22:48 28.21471 -80.37340 30001 ft 442 kts 160°
2026-05-03 22:49 28.15770 -80.34823 30000 ft 442 kts 160°
2026-05-03 22:49 28.10035 -80.32296 30002 ft 442 kts 160°
2026-05-03 22:50 28.04254 -80.29918 30000 ft 441 kts 162°
2026-05-03 22:50 27.98436 -80.27695 30001 ft 441 kts 162°
2026-05-03 22:51 27.92625 -80.25459 30001 ft 441 kts 162°
2026-05-03 22:51 27.86821 -80.23201 30002 ft 440 kts 162°
2026-05-03 22:52 27.81021 -80.20939 30003 ft 441 kts 162°
2026-05-03 22:52 27.75259 -80.18695 30000 ft 441 kts 162°
2026-05-03 22:53 27.69459 -80.16438 30002 ft 441 kts 162°
2026-05-03 22:53 27.63657 -80.14184 30001 ft 441 kts 162°
2026-05-03 22:53 27.60746 -80.13046 29663 ft 444 kts 161°
2026-05-03 22:54 27.57849 -80.11864 29237 ft 440 kts 161°
2026-05-03 22:54 27.54988 -80.10673 28763 ft 436 kts 161°
2026-05-03 22:54 27.52156 -80.09492 28306 ft 430 kts 161°
2026-05-03 22:54 27.49365 -80.08332 27847 ft 425 kts 161°
2026-05-03 22:55 27.46594 -80.07187 27395 ft 421 kts 161°
2026-05-03 22:55 27.43889 -80.06073 26946 ft 417 kts 161°
2026-05-03 22:55 27.41178 -80.04958 26501 ft 413 kts 161°
2026-05-03 22:55 27.38485 -80.03855 26052 ft 410 kts 162°
2026-05-03 22:56 27.35773 -80.02909 25603 ft 406 kts 166°
2026-05-03 22:56 27.33043 -80.02111 25162 ft 404 kts 167°
2026-05-03 22:56 27.30329 -80.01331 24721 ft 402 kts 167°
2026-05-03 22:56 27.27632 -80.00529 24283 ft 400 kts 166°
2026-05-03 22:57 27.24954 -79.99707 23833 ft 399 kts 165°
2026-05-03 22:57 27.22299 -79.98784 23350 ft 399 kts 163°
2026-05-03 22:57 27.19680 -79.97814 23101 ft 393 kts 163°
2026-05-03 22:57 27.17084 -79.96846 22851 ft 394 kts 163°
2026-05-03 22:58 27.14481 -79.95888 22603 ft 394 kts 163°
2026-05-03 22:58 27.11881 -79.94942 22349 ft 392 kts 163°
2026-05-03 22:58 27.09290 -79.94007 22099 ft 390 kts 163°
2026-05-03 22:58 27.06706 -79.93076 21839 ft 389 kts 163°
2026-05-03 22:59 27.04145 -79.92091 21597 ft 388 kts 162°
2026-05-03 22:59 27.01609 -79.91061 21356 ft 387 kts 161°
2026-05-03 22:59 26.99088 -79.90023 21097 ft 385 kts 161°
2026-05-03 22:59 26.96569 -79.88990 20848 ft 384 kts 161°
2026-05-03 23:00 26.94092 -79.87980 20595 ft 383 kts 161°
2026-05-03 23:00 26.91589 -79.86967 20238 ft 381 kts 161°
2026-05-03 23:00 26.89101 -79.85963 19828 ft 378 kts 161°
2026-05-03 23:00 26.86630 -79.84968 19419 ft 376 kts 161°
2026-05-03 23:01 26.84181 -79.83982 19010 ft 373 kts 161°
2026-05-03 23:01 26.81732 -79.82997 18599 ft 371 kts 161°
2026-05-03 23:01 26.79310 -79.82023 18200 ft 369 kts 161°
2026-05-03 23:01 26.76922 -79.81063 17787 ft 367 kts 161°
2026-05-03 23:02 26.74516 -79.80096 17379 ft 365 kts 162°
2026-05-03 23:02 26.72135 -79.79139 17133 ft 359 kts 162°
2026-05-03 23:02 26.69806 -79.78196 16968 ft 355 kts 159°
2026-05-03 23:02 26.67694 -79.76749 16993 ft 362 kts 137°
2026-05-03 23:03 26.66202 -79.74513 16973 ft 357 kts 116°
2026-05-03 23:03 26.65484 -79.71914 16969 ft 344 kts 96°
2026-05-03 23:03 26.65366 -79.69335 16982 ft 329 kts 89°
2026-05-03 23:03 26.65751 -79.66881 16969 ft 314 kts 67°
2026-05-03 23:04 26.66815 -79.64812 16961 ft 299 kts 51°
2026-05-03 23:04 26.68201 -79.63144 16956 ft 287 kts 38°
2026-05-03 23:04 26.69851 -79.61967 16987 ft 279 kts 22°
2026-05-03 23:04 26.71656 -79.61135 16995 ft 283 kts 19°
2026-05-03 23:05 26.73492 -79.60360 16998 ft 287 kts 19°
2026-05-03 23:05 26.75360 -79.59565 16989 ft 287 kts 19°
2026-05-03 23:05 26.77218 -79.58762 16969 ft 286 kts 19°
2026-05-03 23:05 26.79079 -79.57992 16969 ft 283 kts 12°
2026-05-03 23:06 26.81014 -79.57843 16998 ft 277 kts 351°
2026-05-03 23:06 26.82879 -79.58311 16984 ft 274 kts 337°
2026-05-03 23:06 26.84569 -79.59273 16987 ft 272 kts 323°
2026-05-03 23:06 26.85974 -79.60682 16984 ft 270 kts 308°
2026-05-03 23:07 26.86963 -79.62459 16984 ft 269 kts 291°
2026-05-03 23:07 26.87448 -79.64479 16989 ft 269 kts 275°
2026-05-03 23:07 26.87390 -79.66569 16991 ft 270 kts 259°
2026-05-03 23:07 26.86799 -79.68567 16992 ft 272 kts 243°
2026-05-03 23:08 26.85764 -79.70319 16997 ft 274 kts 231°
2026-05-03 23:08 26.84380 -79.71806 16974 ft 278 kts 216°
2026-05-03 23:08 26.82646 -79.72772 17001 ft 280 kts 204°
2026-05-03 23:08 26.80831 -79.73579 16986 ft 281 kts 203°
2026-05-03 23:09 26.79005 -79.74374 16985 ft 282 kts 203°
2026-05-03 23:09 26.77172 -79.75169 16981 ft 282 kts 203°
2026-05-03 23:09 26.75343 -79.75963 16967 ft 282 kts 203°
2026-05-03 23:09 26.73517 -79.76758 16973 ft 281 kts 203°
2026-05-03 23:10 26.71771 -79.77712 16977 ft 278 kts 214°
2026-05-03 23:10 26.70062 -79.78710 16951 ft 280 kts 193°
2026-05-03 23:10 26.68135 -79.78607 16997 ft 281 kts 163°
2026-05-03 23:10 26.66242 -79.78155 16952 ft 278 kts 187°
2026-05-03 23:11 26.64483 -79.78822 17010 ft 273 kts 212°
2026-05-03 23:11 26.62804 -79.79862 16991 ft 279 kts 208°
2026-05-03 23:11 26.61039 -79.80780 16987 ft 280 kts 205°
2026-05-03 23:11 26.59256 -79.81642 16974 ft 278 kts 209°
2026-05-03 23:12 26.57796 -79.82986 16987 ft 271 kts 236°
2026-05-03 23:12 26.56997 -79.84859 16981 ft 268 kts 258°
2026-05-03 23:12 26.56920 -79.86920 16984 ft 267 kts 280°
2026-05-03 23:12 26.57577 -79.88846 16982 ft 268 kts 303°
2026-05-03 23:13 26.58896 -79.90317 16985 ft 271 kts 327°
2026-05-03 23:13 26.60648 -79.91044 16987 ft 276 kts 352°
2026-05-03 23:13 26.62572 -79.90870 16990 ft 282 kts 17°
2026-05-03 23:13 26.64277 -79.89762 16992 ft 288 kts 43°
2026-05-03 23:14 26.65400 -79.87913 16995 ft 291 kts 68°
2026-05-03 23:14 26.65792 -79.85694 16999 ft 293 kts 84°
2026-05-03 23:14 26.66058 -79.83417 16983 ft 295 kts 81°
2026-05-03 23:14 26.66455 -79.81164 16964 ft 295 kts 68°
2026-05-03 23:15 26.67601 -79.79381 16989 ft 284 kts 34°
2026-05-03 23:15 26.69362 -79.78428 16997 ft 284 kts 12°
2026-05-03 23:15 26.71376 -79.78428 17014 ft 298 kts 341°
2026-05-03 23:15 26.73161 -79.79523 17005 ft 290 kts 314°
2026-05-03 23:16 26.74258 -79.81346 16936 ft 279 kts 288°
2026-05-03 23:16 26.74561 -79.83435 16869 ft 268 kts 268°
2026-05-03 23:16 26.74479 -79.84793 16832 ft 261 kts 264°
2026-05-03 23:16 26.74282 -79.86778 16701 ft 254 kts 263°
2026-05-03 23:17 26.74059 -79.88754 16162 ft 263 kts 264°
2026-05-03 23:17 26.73832 -79.91526 15788 ft 269 kts 265°
2026-05-03 23:17 26.73724 -79.92982 15655 ft 288 kts 265°
2026-05-03 23:17 26.73550 -79.95336 15515 ft 318 kts 265°
2026-05-03 23:18 26.73364 -79.97817 15312 ft 327 kts 265°
2026-05-03 23:18 26.73169 -80.00361 15142 ft 326 kts 265°
2026-05-03 23:18 26.72974 -80.02885 15089 ft 323 kts 265°
2026-05-03 23:18 26.72780 -80.05350 15069 ft 312 kts 265°
2026-05-03 23:19 26.72593 -80.07720 15061 ft 298 kts 265°
2026-05-03 23:19 26.72413 -80.09981 15068 ft 286 kts 265°
2026-05-03 23:19 26.72241 -80.12143 15067 ft 282 kts 265°
2026-05-03 23:19 26.72062 -80.14383 15094 ft 295 kts 265°
2026-05-03 23:20 26.71876 -80.16699 15095 ft 302 kts 265°
2026-05-03 23:20 26.71687 -80.19053 15090 ft 304 kts 265°
2026-05-03 23:20 26.71497 -80.21400 15073 ft 302 kts 265°
2026-05-03 23:20 26.71309 -80.23731 15065 ft 296 kts 265°
2026-05-03 23:21 26.71123 -80.26023 15078 ft 298 kts 265°
2026-05-03 23:21 26.70934 -80.28347 15089 ft 302 kts 265°
2026-05-03 23:21 26.70743 -80.30693 15090 ft 303 kts 265°
2026-05-03 23:21 26.70552 -80.33036 15008 ft 305 kts 265°
2026-05-03 23:22 26.70168 -80.37727 14277 ft 301 kts 265°
2026-05-03 23:22 26.69982 -80.40027 13838 ft 299 kts 266°
2026-05-03 23:22 26.70226 -80.42325 13356 ft 299 kts 291°
2026-05-03 23:23 26.71337 -80.44304 13159 ft 306 kts 305°
2026-05-03 23:23 26.72616 -80.46256 12910 ft 315 kts 305°
2026-05-03 23:23 26.73912 -80.48256 12663 ft 317 kts 304°
2026-05-03 23:23 26.75009 -80.50372 12399 ft 314 kts 288°
2026-05-03 23:24 26.75287 -80.52741 12003 ft 305 kts 265°
2026-05-03 23:24 26.75058 -80.55065 11373 ft 304 kts 263°
2026-05-03 23:24 26.74808 -80.57413 10732 ft 303 kts 263°
2026-05-03 23:24 26.74565 -80.59719 10434 ft 291 kts 263°
2026-05-03 23:25 26.74337 -80.61924 10196 ft 278 kts 264°
2026-05-03 23:25 26.74125 -80.64027 10016 ft 266 kts 264°
2026-05-03 23:25 26.73923 -80.66055 9851 ft 260 kts 264°
2026-05-03 23:25 26.73724 -80.68074 9705 ft 262 kts 264°
2026-05-03 23:26 26.73524 -80.70112 9548 ft 265 kts 264°
2026-05-03 23:26 26.73323 -80.72180 9383 ft 267 kts 264°
2026-05-03 23:26 26.73122 -80.74248 9213 ft 268 kts 264°
2026-05-03 23:26 26.72923 -80.76298 9046 ft 269 kts 264°
2026-05-03 23:27 26.72721 -80.78381 8872 ft 269 kts 264°
2026-05-03 23:27 26.72520 -80.80447 8698 ft 265 kts 264°
2026-05-03 23:27 26.72322 -80.82488 8526 ft 261 kts 264°
2026-05-03 23:27 26.72127 -80.84498 8367 ft 259 kts 264°
2026-05-03 23:28 26.71932 -80.86500 8201 ft 259 kts 264°
2026-05-03 23:28 26.71697 -80.88501 7976 ft 262 kts 258°
2026-05-03 23:28 26.71235 -80.90468 7731 ft 260 kts 254°
2026-05-03 23:28 26.70709 -80.92402 7475 ft 258 kts 253°
2026-05-03 23:29 26.70182 -80.94315 7224 ft 256 kts 253°
2026-05-03 23:29 26.69681 -80.96199 6976 ft 254 kts 254°
2026-05-03 23:29 26.69187 -80.98094 6724 ft 253 kts 254°
2026-05-03 23:29 26.68695 -80.99982 6458 ft 251 kts 254°
2026-05-03 23:30 26.68207 -81.01856 6222 ft 250 kts 254°
2026-05-03 23:30 26.67727 -81.03695 5977 ft 249 kts 254°
2026-05-03 23:30 26.67242 -81.05553 5724 ft 248 kts 254°
2026-05-03 23:30 26.66756 -81.07408 5476 ft 248 kts 254°
2026-05-03 23:31 26.66272 -81.09258 5227 ft 247 kts 254°
2026-05-03 23:31 26.65789 -81.11101 4978 ft 247 kts 254°
2026-05-03 23:31 26.65308 -81.12931 4917 ft 242 kts 254°
2026-05-03 23:31 26.64838 -81.14723 4946 ft 241 kts 254°
2026-05-03 23:32 26.64365 -81.16524 4959 ft 247 kts 254°
2026-05-03 23:32 26.63877 -81.18381 4961 ft 250 kts 254°
2026-05-03 23:32 26.63387 -81.20242 4948 ft 248 kts 254°
2026-05-03 23:32 26.62901 -81.22089 4942 ft 247 kts 254°